Grand Marais, MN

8:07 AM CDT on April 25, 2017 (GMT -0500)
Grand Marais

Weather History for KGNA - March, 2014

Change the Weather History Date:

Monday, March 17, 2014

  Actual Average (KCKC) Record (KCKC)
Temperature  
Mean Temperature 20 °F -  
Max Temperature 25 °F 30 °F 66 °F (2012)
Min Temperature 14 °F 13 °F -18 °F (2013)
Degree Days  
Heating Degree Days 46    
Moisture  
Dew Point 15 °F    
Average Humidity 79    
Maximum Humidity 86    
Minimum Humidity 70    
Precipitation  
Precipitation 0.05 in - - ()
Sea Level Pressure  
Sea Level Pressure 29.86 in    
Wind  
Wind Speed 7 mph (East)    
Max Wind Speed 16 mph    
Max Gust Speed 17 mph    
Averages and records for this station are not official NWS values.
T = Trace of Precipitation, MM = Missing Value Source: NWS Daily Summary

Daily Weather History Graph

Daily Weather History Graph

Search for Another Location

Airport or City:

Trip Planner

Search our weather history database for the weather conditions in past years. The results will help you decide how hot, cold, wet, or windy it might be!

Date:

Astronomy

Mar. 17, 2014 Rise Set
Actual Time 7:10 AM CDT 7:09 PM CDT
Civil Twilight 6:39 AM CDT 7:40 PM CDT
Nautical Twilight 6:03 AM CDT 8:16 PM CDT
Astronomical Twilight 5:26 AM CDT 8:53 PM CDT
Moon 8:34 PM CDT (3/17) 7:20 AM CDT (3/17)
Length of Visible Light 13h 01m
Length of Day
11h 59m
Full, 99% of the Moon is Illuminated
Mar 17
Full
Mar 23
Last Quarter
Mar 30
New
Apr 7
First Quarter
Apr 15
Full

Hourly Weather History & Observations

Time (CDT) Temp. Windchill Dew Point Humidity Pressure Visibility Wind Dir Wind Speed Gust Speed Precip Events Conditions
12:56 AM 14.0 °F 8.2 °F 8.1 °F 77% 30.07 in - NE 3.5 mph - N/A   Unknown
1:56 AM 15.1 °F 7.7 °F 7.0 °F 70% 30.05 in - NNE 4.6 mph - N/A   Unknown
2:56 AM 16.0 °F - 8.1 °F 71% 30.01 in - Calm Calm - N/A   Unknown
3:45 AM 19.4 °F 5.0 °F 15.8 °F 86% 29.91 in - SSW 16.1 mph - 0.01 in   Unknown
3:56 AM 19.0 °F 4.5 °F 15.1 °F 85% 29.96 in - South 16.1 mph - 0.02 in   Unknown
4:56 AM 19.0 °F 5.6 °F 15.1 °F 85% 29.94 in - South 13.8 mph - 0.02 in   Unknown
5:56 AM 19.0 °F 6.8 °F 15.1 °F 85% 29.91 in - South 11.5 mph - 0.01 in   Unknown
6:56 AM 19.9 °F 7.9 °F 16.0 °F 85% 29.89 in - SSE 11.5 mph - N/A   Unknown
7:56 AM 19.0 °F 9.0 °F 15.1 °F 85% 29.88 in - SE 8.1 mph 17.3 mph N/A   Unknown
8:56 AM 19.9 °F 10.1 °F 15.1 °F 81% 29.86 in - SSE 8.1 mph - N/A   Unknown
9:56 AM 19.9 °F 10.1 °F 15.1 °F 81% 29.83 in - SE 8.1 mph - N/A   Unknown
10:56 AM 21.0 °F 11.4 °F 15.1 °F 78% 29.82 in - SE 8.1 mph - N/A   Unknown
11:56 AM 21.0 °F 12.4 °F 16.0 °F 81% 29.80 in - SE 6.9 mph - N/A   Unknown
12:56 PM 21.9 °F 11.7 °F 15.1 °F 75% 29.79 in - SSE 9.2 mph - N/A   Unknown
1:56 PM 21.9 °F 17.2 °F 16.0 °F 78% 29.77 in - Variable 3.5 mph - N/A   Unknown
2:56 PM 21.9 °F 13.4 °F 16.0 °F 78% 29.77 in - East 6.9 mph - N/A   Unknown
3:56 PM 23.0 °F 13.1 °F 15.1 °F 72% 29.77 in - ENE 9.2 mph - N/A   Unknown
4:56 PM 21.9 °F 12.5 °F 16.0 °F 78% 29.77 in - ENE 8.1 mph - N/A   Unknown
5:56 PM 23.0 °F 13.1 °F 16.0 °F 74% 29.77 in - ENE 9.2 mph - N/A   Unknown
6:56 PM 21.9 °F 14.5 °F 16.0 °F 78% 29.78 in - NE 5.8 mph - N/A   Unknown
7:56 PM 23.0 °F 17.0 °F 16.0 °F 74% 29.79 in - NE 4.6 mph - N/A   Unknown
8:56 PM 23.0 °F 18.4 °F 17.1 °F 78% 29.81 in - NE 3.5 mph - N/A   Unknown
9:56 PM 24.1 °F 18.2 °F 18.0 °F 77% 29.83 in - NE 4.6 mph - N/A   Unknown
10:56 PM 25.0 °F 20.7 °F 19.0 °F 78% 29.85 in - NE 3.5 mph - N/A   Unknown
11:56 PM 25.0 °F 20.7 °F 19.0 °F 78% 29.85 in - NNE 3.5 mph - N/A   Unknown